Location: Austin
(30.3000°N, 97.7500°W)
Time: 23:04:33
(UTC-06:00)

Cosmos 1892 Rocket - Pass Details

Date: 03 December 2025
Orbit: 600 x 625 km, 82.5° (Epoch: 07 December)

Event Time Altitude Azimuth Distance (km) Brightness Sun altitude
Rises 06:07:15 0° 175° (S) 2,836 7.3 -13.8°
Reaches altitude 10° 06:09:28 10° 171° (S) 1,940 6.5 -13.3°
Maximum altitude 06:13:40 56° 93° (E) 719 4.3 -12.5°
Drops below altitude 10° 06:17:56 10° 15° (NNE) 1,964 6.1 -11.6°
Sets 06:20:11 0° 12° (NNE) 2,876 6.9 -11.1°
